User: anonymous   Login
Location: Columbia
(38.9520°N, 92.3340°W)
Time: 22:09:40
(UTC-05:00)
Language:

SJ-11-01 - Orbit

View from above orbital plane
View from above orbital plane
View from above satellite
View from above satellite

Ground track
Ground track

The orbit data is extracted from the following two-line orbital elements,

1 36088U 09061A   18174.85041092  .00000038  00000-0  17400-4 0  9998
2 36088  98.0851 219.6549 0011355 179.3659 180.7552 14.60027589458871
Epoch (UTC): 23 June 2018 20:24:35
Eccentricity: 0.0011355
inclination: 98.0851°
perigee height: 685 km
apogee height: 701 km
right ascension of ascending node: 219.6549°
argument of perigee: 179.3659°
revolutions per day: 14.60027589
mean anomaly at epoch: 180.7552°
orbit number at epoch: 45887

The dashed part of the orbit path shows where the satellite is in the earth's shadow,  

DLR